Regional Weather Roundup
Issued by NWS Mobile, AL

Home | Current Version | Previous Version | Text Only | Print | Product List | Glossary On
Versions: 1 2 3 4 5 6 7 8 9 10 11 12 13 14 15 16 17 18 19 20 21 22 23 24 25 26 27 28 29 30
000
ASUS44 KMOB 221510
RWRMOB
REGIONAL WEATHER ROUNDUP
NATIONAL WEATHER SERVICE MOBILE AL
1000 AM CDT WED OCT 22 2014

NOTE: "FAIR" INDICATES FEW OR NO CLOUDS BELOW 12,000 FEET WITH NO
      SIGNIFICANT WEATHER AND/OR OBSTRUCTIONS TO VISIBILITY.

  * THESE STATIONS ARE PART OF THE UNIVERSITY OF SOUTH ALABAMA
    MESONET AND ARE NOT UNDER NWS OR FAA QUALITY CONTROL.

ALZ061>064-221600-
COASTAL ALABAMA

CITY           SKY/WX    TMP DP  RH WIND       PRES   REMARKS
MOBILE REG APT NOT AVBL
BROOKLEY FIELD NOT AVBL
USA CAMPUS*      N/A     68  54  60 E5        30.11S
DOG RIVER*     NOT AVBL


CITY           SKY/WX    TMP DP  RH WIND       PRES   REMARKS
MOUNT VERNON*    N/A     64  54  68 CALM      30.13S
SARALAND*      NOT AVBL
BAY MINETTE*   NOT AVBL
LOXLEY*          N/A     66  54  63 NE6       30.10S
ROBERTSDALE*     N/A     68  55  64 CALM      30.10R
FAIRHOPE*        N/A     68  54  60 NE9       30.09S
ELBERTA*         N/A     66  54  63 N8        30.09R
FOLEY*           N/A     64  50  59 N9        30.08S
GRAND BAY*       N/A     70  54  56 NE7       30.08S
DAUPHIN ISLND* NOT AVBL
BON SCOUR NWR* NOT AVBL
GULF SHORES    NOT AVBL

$$

ALZ051>060-221600-
INTERIOR SOUTHWEST AND SOUTH CENTRAL ALABAMA

CITY           SKY/WX    TMP DP  RH WIND       PRES   REMARKS
GREENVILLE     SUNNY     62  46  55 NE9       30.14R
EVERGREEN      NOT AVBL
CASTLEBERRY*   NOT AVBL
ATMORE*          N/A     66  52  59 NE9       30.12S
DIXIE*           N/A     64  54  68 CALM      30.09S
ANDALUSIA/OPP  SUNNY     71  50  47 E8        30.11S
ANDALUSIA*       N/A     63  52  67 N7        30.11S
FLORALA APT    SUNNY     68  52  56 NE12      30.12S
FLORALA*         N/A     64  50  59 N9        30.08S

$$

FLZ001>006-221600-
WESTERN FLORIDA PANHANDLE

CITY           SKY/WX    TMP DP  RH WIND       PRES   REMARKS
PENSACOLA      NOT AVBL
NAS PENSACOLA  SUNNY     71  53  52 NE9       30.08R
MILTON         SUNNY     68  51  54 NE9       30.10S
WHTNG S FIELD  SUNNY     69  52  54 NE9       30.09S


CITY           SKY/WX    TMP DP  RH WIND       PRES   REMARKS
WALNUT HILL*   NOT AVBL
JAY*             N/A     66  50  55 NE5       30.11S
CRESTVIEW      NOT AVBL
VALPARAISO     MOSUNNY   70  50  49 NE7       30.08S
DESTIN         NOT AVBL

$$

MSZ076-079-221600-
INTERIOR SOUTHEAST MISSISSIPPI

CITY           SKY/WX    TMP DP  RH WIND       PRES   REMARKS
LEAKESVILLE*   NOT AVBL
AGRICOLA*      NOT AVBL

$$

MARINE OBSERVATIONS

STATION/POSITION TIME  TEMP    WIND        PRES    WAVE
                       AIR SEA DIR/SP/G            HT/PER
                 (UTC) (F)     (DEG/KT/KT) (MB)    (FT/S)
PASCAGOULA       1400   66      20/  7/  9 1018.6R
PETIT BOIS ISLND 1400   68      50/ 13/ 16 1018.9R
GRAND BAY        1400   62      30/  6     1020.0R
KATRINA CUT      1300   65      40/ 12     1019.0R
CEDAR POINT      1300   65      40/ 10     1018.6R
E DAUPHIN ISLAND 1354   68      20/ 12/ 14 1018.8R
MIDDLE BAY LIGHT 1400   69      30/ 13     1018.6R
USCG MOBILE BAY  1400   64 75   30/  8/ 10 1018.2R
STATE DOCKS      1400   66 74              1019.2R
MEAHER PARK      1400   64      10/  5     1019.3S
WEEKS BAY        1400   62                   N/A
FORT MORGAN      1400   68      50/ 12/ 14 1018.4R
12 S ORANGE BCH  1400   71 78   40/ 16/ 19 1017.4R   2/ 4
PENSACOLA BAY    1400   70 73   30/  4/  9 1018.8R
64 S DAUPHIN ISL 1334   75 79   50/ 16/ 17 1018.0R   3/ 4
67 S FORT MORGAN 1300   77                 1016.9

$$

SELECTED LOCATIONS ACROSS THE REGION

CITY           SKY/WX    TMP DP  RH WIND       PRES   REMARKS
NEW ORLEANS    NOT AVBL
GULFPORT       NOT AVBL
PASCAGOULA AP  NOT AVBL
PASCAGOULA*      N/A     68  54  60 N6        30.09S
HATTIESBURG    NOT AVBL
LAUREL         NOT AVBL
MERIDIAN       NOT AVBL
JACKSON        NOT AVBL
MONTGOMERY     NOT AVBL
TROY           NOT AVBL
KINSTON*       NOT AVBL
GENEVA*          N/A     64  50  59 NE10      30.12S
ASHFORD*         N/A     63  52  67 N7        30.11S
DOTHAN         NOT AVBL
PANAMA CITY    NOT AVBL

$$




USA.gov is the U.S. government's official web portal to all federal, state and local government web resources and services.